User: anonymous   Login
Location: Unspecified
(0.0000°N, 0.0000°E)
Time: 17:19:03
(UTC+00:00)
Language:

NOAA 18 - Orbit

View from above orbital plane
View from above orbital plane
View from above satellite
View from above satellite

Ground track
Ground track

The orbit data is extracted from the following two-line orbital elements,

1 28654U 05018A   18051.92558238 -.00000010 +00000-0 +19526-4 0  9995
2 28654 099.1599 084.9301 0015299 094.4852 265.8066 14.12367086657270
Epoch (UTC): 20 February 2018 22:12:50
Eccentricity: 0.0015299
inclination: 99.1599°
perigee height: 840 km
apogee height: 862 km
right ascension of ascending node: 84.9301°
argument of perigee: 94.4852°
revolutions per day: 14.12367086
mean anomaly at epoch: 265.8066°
orbit number at epoch: 65727

The dashed part of the orbit path shows where the satellite is in the earth's shadow,  

DLR